| time (UTC) | temp C | wind direction | speed KPH | gust KPH | rain 1hr cm | rain 24hr cm | rain mn cm | humidity % | barometer mb |
| 20260906225604 | 23 | 125 | 8.0 | 20.9 | 0.00 | 0.64 | 0.00 | 45 | 1026.5 |
| 20260906224604 | 23 | 133 | 11.3 | 20.9 | 0.00 | 0.64 | 0.00 | 45 | 1026.5 |
| 20260906224104 | 23 | 166 | 9.7 | 22.5 | 0.00 | 0.64 | 0.00 | 46 | 1026.5 |
| 20260906223604 | 23 | 141 | 14.5 | 22.5 | 0.00 | 0.64 | 0.00 | 45 | 1026.6 |
| 20260906223104 | 23 | 127 | 8.0 | 19.3 | 0.00 | 0.64 | 0.00 | 47 | 1026.9 |
| 20260906222604 | 23 | 104 | 6.4 | 19.3 | 0.00 | 0.64 | 0.00 | 48 | 1027.3 |
| 20260906222103 | 23 | 140 | 11.3 | 19.3 | 0.00 | 0.64 | 0.00 | 48 | 1027.4 |
| 20260906221604 | 22 | 121 | 8.0 | 24.1 | 0.00 | 0.64 | 0.00 | 49 | 1027.4 |
| 20260906221103 | 22 | 127 | 14.5 | 24.1 | 0.00 | 0.64 | 0.00 | 50 | 1027.3 |
| 20260906220603 | 22 | 126 | 6.4 | 16.1 | 0.00 | 0.64 | 0.00 | 50 | 1027.3 |
| 20260906220104 | 22 | 134 | 9.7 | 20.9 | 0.00 | 0.64 | 0.00 | 50 | 1027.4 |
| 20260906215604 | 22 | 128 | 8.0 | 20.9 | 0.00 | 0.64 | 0.00 | 49 | 1027.5 |
| 20260906215104 | 22 | 133 | 6.4 | 25.7 | 0.00 | 0.64 | 0.00 | 48 | 1027.3 |
| 20260906214604 | 22 | 126 | 11.3 | 25.7 | 0.00 | 0.64 | 0.00 | 49 | 1027.6 |
| 20260906213104 | 22 | 143 | 9.7 | 32.2 | 0.00 | 0.64 | 0.00 | 47 | 1027.5 |
| 20260906212604 | 23 | 149 | 17.7 | 32.2 | 0.00 | 0.64 | 0.00 | 46 | 1027.8 |
| 20260906212104 | 23 | 144 | 9.7 | 27.4 | 0.00 | 0.64 | 0.00 | 46 | 1027.7 |
| 20260906211604 | 22 | 126 | 16.1 | 27.4 | 0.00 | 0.64 | 0.00 | 46 | 1027.5 |
| 20260906211104 | 23 | 156 | 11.3 | 32.2 | 0.00 | 0.64 | 0.00 | 46 | 1027.5 |
| 20260906210605 | 23 | 128 | 14.5 | 32.2 | 0.00 | 0.64 | 0.00 | 45 | 1027.7 |
| 20260906210105 | 23 | 141 | 16.1 | 32.2 | 0.00 | 0.64 | 0.00 | 44 | 1027.7 |
| 20260906205604 | 23 | 164 | 14.5 | 27.4 | 0.00 | 0.64 | 0.00 | 43 | 1027.6 |
| 20260906205104 | 23 | 144 | 11.3 | 33.8 | 0.00 | 0.64 | 0.00 | 45 | 1027.6 |
| 20260906204604 | 23 | 153 | 14.5 | 33.8 | 0.00 | 0.64 | 0.00 | 45 | 1027.8 |
| 20260906203104 | 23 | 123 | 16.1 | 38.6 | 0.00 | 0.64 | 0.00 | 44 | 1027.7 |
| 20260906202604 | 23 | 140 | 9.7 | 25.7 | 0.00 | 0.64 | 0.00 | 44 | 1027.7 |
| 20260906201604 | 23 | 155 | 11.3 | 27.4 | 0.00 | 0.64 | 0.00 | 44 | 1027.8 |
| 20260906200604 | 23 | 129 | 16.1 | 27.4 | 0.00 | 0.64 | 0.00 | 43 | 1027.9 |
| 20260906195604 | 23 | 129 | 16.1 | 32.2 | 0.00 | 0.64 | 0.00 | 45 | 1027.9 |
| 20260906195104 | 22 | 150 | 14.5 | 32.2 | 0.00 | 0.64 | 0.00 | 45 | 1028.0 |
| 20260906194604 | 22 | 127 | 19.3 | 32.2 | 0.00 | 0.64 | 0.00 | 45 | 1028.1 |
| 20260906194104 | 23 | 141 | 17.7 | 32.2 | 0.00 | 0.64 | 0.00 | 43 | 1028.0 |
| 20260906193604 | 22 | 141 | 14.5 | 32.2 | 0.00 | 0.64 | 0.00 | 44 | 1027.9 |
| 20260906193104 | 22 | 138 | 19.3 | 35.4 | 0.00 | 0.64 | 0.00 | 44 | 1028.1 |
| 20260906192604 | 23 | 127 | 19.3 | 35.4 | 0.00 | 0.64 | 0.00 | 44 | 1028.0 |
| 20260906191605 | 23 | 160 | 14.5 | 32.2 | 0.00 | 0.64 | 0.00 | 42 | 1028.2 |
| 20260906191104 | 24 | 150 | 11.3 | 24.1 | 0.00 | 0.64 | 0.00 | 41 | 1028.3 |
| 20260906190605 | 23 | 156 | 8.0 | 24.1 | 0.00 | 0.64 | 0.00 | 41 | 1028.4 |
| 20260906185604 | 23 | 212 | 9.7 | 25.7 | 0.00 | 0.64 | 0.00 | 39 | 1028.8 |
| 20260906185104 | 24 | 196 | 14.5 | 25.7 | 0.00 | 0.64 | 0.00 | 37 | 1028.3 |
| 20260906184605 | 24 | 143 | 11.3 | 25.7 | 0.00 | 0.64 | 0.00 | 38 | 1028.5 |
| 20260906183605 | 23 | 139 | 14.5 | 25.7 | 0.00 | 0.64 | 0.00 | 38 | 1028.5 |
| 20260906183104 | 23 | 134 | 14.5 | 27.4 | 0.00 | 0.64 | 0.00 | 39 | 1028.5 |
| 20260906182604 | 23 | 179 | 14.5 | 27.4 | 0.00 | 0.64 | 0.00 | 40 | 1028.9 |
| 20260906182104 | 23 | 135 | 17.7 | 24.1 | 0.00 | 0.64 | 0.00 | 38 | 1028.7 |
| 20260906181604 | 23 | 139 | 11.3 | 24.1 | 0.00 | 0.64 | 0.00 | 41 | 1029.0 |
| 20260906181104 | 22 | 232 | 11.3 | 33.8 | 0.00 | 0.64 | 0.00 | 39 | 1028.8 |
| 20260906180605 | 23 | 151 | 20.9 | 33.8 | 0.00 | 0.64 | 0.00 | 39 | 1028.8 |
| 20260906180106 | 23 | 135 | 14.5 | 24.1 | 0.00 | 0.64 | 0.00 | 39 | 1028.9 |
| 20260906175604 | 22 | 152 | 11.3 | 24.1 | 0.00 | 0.64 | 0.00 | 43 | 1029.5 |
| 20260906175105 | 22 | 141 | 11.3 | 24.1 | 0.00 | 0.64 | 0.00 | 41 | 1029.4 |
| 20260906174605 | 22 | 168 | 17.7 | 27.4 | 0.00 | 0.64 | 0.00 | 40 | 1029.2 |
| 20260906174104 | 22 | 138 | 14.5 | 27.4 | 0.00 | 0.64 | 0.00 | 42 | 1029.3 |
| 20260906173604 | 22 | 172 | 11.3 | 22.5 | 0.00 | 0.64 | 0.00 | 41 | 1029.3 |
| 20260906173104 | 22 | 149 | 16.1 | 22.5 | 0.00 | 0.64 | 0.00 | 42 | 1029.6 |
| 20260906171605 | 22 | 150 | 16.1 | 29.0 | 0.00 | 0.64 | 0.00 | 42 | 1029.9 |
| 20260906170604 | 22 | 139 | 16.1 | 27.4 | 0.00 | 0.64 | 0.00 | 42 | 1029.9 |
| 20260906170106 | 22 | 131 | 11.3 | 22.5 | 0.00 | 0.64 | 0.00 | 44 | 1030.3 |
| 20260906165604 | 22 | 139 | 14.5 | 22.5 | 0.00 | 0.64 | 0.00 | 43 | 1030.0 |
| 20260906165104 | 22 | 126 | 12.9 | 22.5 | 0.00 | 0.64 | 0.00 | 43 | 1030.1 |
| 20260906164104 | 22 | 133 | 8.0 | 19.3 | 0.00 | 0.64 | 0.00 | 46 | 1030.2 |
| 20260906162104 | 21 | 150 | 8.0 | 19.3 | 0.00 | 0.64 | 0.00 | 47 | 1030.2 |
| 20260906161605 | 21 | 132 | 14.5 | 19.3 | 0.00 | 0.64 | 0.00 | 44 | 1030.1 |
| 20260906160604 | 21 | 167 | 11.3 | 16.1 | 0.00 | 0.64 | 0.00 | 44 | 1030.1 |
| 20260906155605 | 21 | 105 | 4.8 | 12.9 | 0.00 | 0.64 | 0.00 | 47 | 1030.3 |
| 20260906155105 | 21 | 131 | 9.7 | 19.3 | 0.00 | 0.64 | 0.00 | 45 | 1030.1 |
| 20260906154605 | 21 | 150 | 9.7 | 19.3 | 0.00 | 0.64 | 0.00 | 46 | 1030.2 |
| 20260906154105 | 21 | 134 | 4.8 | 19.3 | 0.00 | 0.64 | 0.00 | 46 | 1030.1 |
| 20260906153605 | 21 | 136 | 4.8 | 12.9 | 0.00 | 0.64 | 0.00 | 45 | 1030.2 |
| 20260906153105 | 21 | 141 | 8.0 | 12.9 | 0.00 | 0.64 | 0.00 | 46 | 1030.2 |
| 20260906152105 | 20 | 144 | 4.8 | 14.5 | 0.00 | 0.64 | 0.00 | 45 | 1030.0 |
| 20260906151105 | 19 | 56 | 3.2 | 4.8 | 0.00 | 0.64 | 0.00 | 51 | 1030.2 |
| 20260906150605 | 19 | 42 | 3.2 | 4.8 | 0.00 | 0.64 | 0.00 | 49 | 1030.0 |
| 20260906150105 | 18 | 86 | 1.6 | 4.8 | 0.00 | 0.64 | 0.00 | 49 | 1030.1 |
| 20260906145605 | 18 | 40 | 1.6 | 4.8 | 0.00 | 0.64 | 0.00 | 49 | 1030.1 |
| 20260906144605 | 18 | 42 | 4.8 | 4.8 | 0.00 | 0.64 | 0.00 | 48 | 1030.2 |
| 20260906144105 | 18 | 48 | 3.2 | 4.8 | 0.00 | 0.64 | 0.00 | 47 | 1029.9 |
| 20260906143106 | 19 | 95 | 3.2 | 4.8 | 0.00 | 0.64 | 0.00 | 46 | 1030.0 |
| 20260906142105 | 20 | 134 | 3.2 | 8.0 | 0.00 | 0.64 | 0.00 | 46 | 1029.8 |
| 20260906141605 | 20 | 133 | 3.2 | 4.8 | 0.00 | 0.64 | 0.00 | 46 | 1029.9 |
| 20260906141105 | 19 | 127 | 3.2 | 4.8 | 0.00 | 0.64 | 0.00 | 45 | 1029.9 |
| 20260906140605 | 18 | 37 | 0.0 | 3.2 | 0.00 | 0.64 | 0.00 | 47 | 1029.7 |
| 20260906140106 | 18 | 37 | 1.6 | 1.6 | 0.00 | 0.64 | 0.00 | 46 | 1029.7 |
| 20260906135604 | 18 | 37 | 0.0 | 1.6 | 0.00 | 0.64 | 0.00 | 48 | 1030.3 |
| 20260906135105 | 18 | 37 | 0.0 | 4.8 | 0.00 | 0.64 | 0.00 | 48 | 1030.4 |
| 20260906134106 | 17 | 37 | 3.2 | 4.8 | 0.00 | 0.64 | 0.00 | 49 | 1030.1 |
| 20260906133605 | 17 | 301 | 3.2 | 4.8 | 0.00 | 0.64 | 0.00 | 47 | 1029.7 |
| 20260906133105 | 17 | 287 | 3.2 | 4.8 | 0.00 | 0.64 | 0.00 | 48 | 1029.7 |
| 20260906132605 | 17 | 287 | 3.2 | 4.8 | 0.00 | 0.64 | 0.00 | 49 | 1029.8 |
| 20260906131105 | 17 | 276 | 4.8 | 9.7 | 0.00 | 0.64 | 0.00 | 49 | 1029.4 |
| 20260906130605 | 16 | 268 | 4.8 | 9.7 | 0.00 | 0.64 | 0.00 | 50 | 1029.3 |
| 20260906130106 | 16 | 273 | 8.0 | 12.9 | 0.00 | 0.64 | 0.00 | 49 | 1029.4 |
| 20260906125106 | 16 | 274 | 8.0 | 12.9 | 0.00 | 0.64 | 0.00 | 50 | 1029.3 |
| 20260906124606 | 16 | 274 | 8.0 | 9.7 | 0.00 | 0.64 | 0.00 | 50 | 1029.3 |
| 20260906123605 | 16 | 278 | 6.4 | 9.7 | 0.00 | 0.64 | 0.00 | 51 | 1029.2 |
| 20260906123106 | 16 | 272 | 4.8 | 9.7 | 0.00 | 0.64 | 0.00 | 51 | 1029.1 |
| 20260906122104 | 16 | 259 | 4.8 | 8.0 | 0.00 | 0.64 | 0.00 | 51 | 1029.1 |
| 20260906121606 | 16 | 259 | 4.8 | 8.0 | 0.00 | 0.64 | 0.00 | 51 | 1029.1 |
| 20260906121105 | 16 | 261 | 4.8 | 8.0 | 0.00 | 0.64 | 0.00 | 52 | 1029.0 |
| 20260906120605 | 16 | 261 | 4.8 | 8.0 | 0.00 | 0.64 | 0.00 | 51 | 1029.0 |
| 20260906120106 | 16 | 263 | 4.8 | 8.0 | 0.00 | 0.64 | 0.00 | 51 | 1028.9 |
| 20260906115606 | 16 | 271 | 4.8 | 9.7 | 0.00 | 0.64 | 0.00 | 51 | 1029.5 |
| 20260906114106 | 16 | 276 | 4.8 | 8.0 | 0.00 | 0.64 | 0.00 | 51 | 1029.5 |
| 20260906113606 | 16 | 274 | 4.8 | 9.7 | 0.00 | 0.64 | 0.00 | 51 | 1029.5 |
| 20260906113106 | 16 | 273 | 4.8 | 9.7 | 0.00 | 0.64 | 0.00 | 51 | 1029.5 |
| 20260906112605 | 16 | 273 | 8.0 | 12.9 | 0.00 | 0.64 | 0.00 | 52 | 1029.5 |
| 20260906112105 | 15 | 270 | 6.4 | 12.9 | 0.00 | 0.64 | 0.00 | 53 | 1029.0 |
| 20260906111605 | 16 | 261 | 6.4 | 9.7 | 0.00 | 0.64 | 0.00 | 53 | 1029.4 |
| 20260906111105 | 16 | 263 | 4.8 | 8.0 | 0.00 | 0.64 | 0.00 | 52 | 1029.2 |
| 20260906110605 | 16 | 269 | 4.8 | 8.0 | 0.00 | 0.64 | 0.00 | 52 | 1029.2 |
| 20260906110106 | 16 | 274 | 4.8 | 8.0 | 0.00 | 0.64 | 0.00 | 52 | 1029.2 |
| 20260906105606 | 16 | 266 | 3.2 | 4.8 | 0.00 | 0.64 | 0.00 | 51 | 1029.2 |
| 20260906105105 | 16 | 265 | 3.2 | 4.8 | 0.00 | 0.64 | 0.00 | 51 | 1029.2 |
| 20260906104606 | 16 | 265 | 3.2 | 4.8 | 0.00 | 0.64 | 0.00 | 52 | 1029.2 |
| 20260906104106 | 16 | 265 | 4.8 | 8.0 | 0.00 | 0.64 | 0.00 | 52 | 1029.3 |
| 20260906103606 | 16 | 264 | 3.2 | 9.7 | 0.00 | 0.64 | 0.00 | 52 | 1029.3 |
| 20260906103105 | 16 | 266 | 4.8 | 9.7 | 0.00 | 0.64 | 0.00 | 51 | 1029.3 |
| 20260906102605 | 16 | 267 | 6.4 | 9.7 | 0.00 | 0.64 | 0.00 | 51 | 1029.3 |
| 20260906101605 | 16 | 263 | 4.8 | 9.7 | 0.00 | 0.64 | 0.00 | 50 | 1029.2 |
| 20260906101106 | 16 | 275 | 4.8 | 8.0 | 0.00 | 0.64 | 0.00 | 50 | 1029.3 |
| 20260906100605 | 17 | 278 | 3.2 | 4.8 | 0.00 | 0.64 | 0.00 | 49 | 1029.3 |
| 20260906100106 | 17 | 278 | 1.6 | 4.8 | 0.00 | 0.64 | 0.00 | 48 | 1029.4 |
| 20260906095606 | 17 | 278 | 0.0 | 3.2 | 0.00 | 0.64 | 0.00 | 47 | 1029.3 |
| 20260906095106 | 17 | 278 | 0.0 | 3.2 | 0.00 | 0.64 | 0.00 | 48 | 1029.3 |
| 20260906094606 | 17 | 278 | 1.6 | 3.2 | 0.00 | 0.64 | 0.00 | 48 | 1029.4 |
| 20260906094106 | 17 | 278 | 0.0 | 4.8 | 0.00 | 0.64 | 0.00 | 48 | 1029.4 |
| 20260906093606 | 17 | 278 | 3.2 | 4.8 | 0.00 | 0.64 | 0.00 | 49 | 1029.4 |
| 20260906093105 | 16 | 278 | 3.2 | 4.8 | 0.00 | 0.64 | 0.00 | 49 | 1029.6 |
| 20260906092605 | 16 | 278 | 1.6 | 4.8 | 0.00 | 0.64 | 0.00 | 50 | 1029.6 |
| 20260906092106 | 16 | 278 | 3.2 | 4.8 | 0.00 | 0.64 | 0.00 | 50 | 1029.5 |
| 20260906091106 | 16 | 276 | 4.8 | 8.0 | 0.00 | 0.64 | 0.00 | 52 | 1029.6 |
| 20260906090605 | 16 | 271 | 4.8 | 8.0 | 0.00 | 0.64 | 0.00 | 51 | 1029.4 |
| 20260906090107 | 16 | 270 | 4.8 | 8.0 | 0.00 | 0.64 | 0.00 | 51 | 1029.4 |
| 20260906085606 | 16 | 273 | 4.8 | 4.8 | 0.00 | 0.64 | 0.00 | 51 | 1029.3 |
| 20260906085105 | 16 | 275 | 3.2 | 8.0 | 0.00 | 0.64 | 0.00 | 51 | 1029.3 |
| 20260906084605 | 16 | 275 | 3.2 | 8.0 | 0.00 | 0.64 | 0.00 | 51 | 1029.4 |
| 20260906083605 | 16 | 275 | 4.8 | 9.7 | 0.00 | 0.64 | 0.00 | 52 | 1029.4 |
| 20260906083106 | 16 | 270 | 4.8 | 14.5 | 0.00 | 0.64 | 0.00 | 53 | 1029.4 |
| 20260906082606 | 16 | 268 | 4.8 | 14.5 | 0.00 | 0.64 | 0.00 | 53 | 1029.4 |
| 20260906082106 | 16 | 267 | 9.7 | 14.5 | 0.00 | 0.64 | 0.00 | 53 | 1029.3 |
| 20260906081603 | 16 | 276 | 8.0 | 12.9 | 0.00 | 0.64 | 0.00 | 54 | 1029.4 |
| 20260906081103 | 16 | 262 | 8.0 | 14.5 | 0.00 | 0.64 | 0.00 | 55 | 1029.7 |
| 20260906080104 | 16 | 275 | 11.3 | 14.5 | 0.00 | 0.64 | 0.00 | 53 | 1029.5 |
| 20260906075604 | 16 | 273 | 8.0 | 12.9 | 0.00 | 0.64 | 0.00 | 54 | 1029.7 |
| 20260906075103 | 16 | 264 | 8.0 | 12.9 | 0.00 | 0.64 | 0.00 | 53 | 1029.7 |
| 20260906074603 | 16 | 277 | 8.0 | 11.3 | 0.00 | 0.64 | 0.00 | 53 | 1029.7 |
| 20260906074103 | 16 | 284 | 4.8 | 11.3 | 0.00 | 0.64 | 0.00 | 53 | 1029.7 |
| 20260906073603 | 16 | 278 | 4.8 | 9.7 | 0.00 | 0.64 | 0.00 | 53 | 1029.8 |
| 20260906073103 | 16 | 306 | 4.8 | 9.7 | 0.00 | 0.64 | 0.00 | 53 | 1029.7 |
| 20260906072603 | 16 | 317 | 4.8 | 9.7 | 0.00 | 0.64 | 0.00 | 52 | 1029.5 |
| 20260906072104 | 15 | 319 | 4.8 | 12.9 | 0.00 | 0.64 | 0.00 | 54 | 1029.5 |
| 20260906071603 | 15 | 322 | 6.4 | 12.9 | 0.00 | 0.64 | 0.00 | 56 | 1029.7 |
| 20260906071103 | 15 | 325 | 8.0 | 14.5 | 0.00 | 0.64 | 0.00 | 58 | 1029.9 |
| 20260906070603 | 15 | 320 | 8.0 | 14.5 | 0.00 | 0.64 | 0.00 | 57 | 1029.8 |
| 20260906070104 | 15 | 330 | 8.0 | 14.5 | 0.00 | 0.64 | 0.00 | 58 | 1029.9 |
| 20260906065603 | 15 | 336 | 9.7 | 14.5 | 0.00 | 0.64 | 0.00 | 58 | 1029.7 |
| 20260906065103 | 15 | 325 | 9.7 | 14.5 | 0.00 | 0.64 | 0.00 | 58 | 1029.8 |
| 20260906064103 | 15 | 330 | 8.0 | 12.9 | 0.00 | 0.64 | 0.00 | 59 | 1030.0 |
| 20260906062603 | 15 | 328 | 8.0 | 12.9 | 0.00 | 0.64 | 0.00 | 57 | 1029.9 |
| 20260906061104 | 15 | 336 | 8.0 | 12.9 | 0.00 | 0.64 | 0.00 | 57 | 1030.2 |
| 20260906060104 | 16 | 312 | 6.4 | 9.7 | 0.00 | 0.64 | 0.00 | 56 | 1030.2 |
| 20260906055603 | 16 | 297 | 4.8 | 4.8 | 0.00 | 0.64 | 0.64 | 55 | 1030.0 |
| 20260906055103 | 15 | 292 | 4.8 | 4.8 | 0.00 | 0.64 | 0.64 | 55 | 1029.9 |
| 20260906054603 | 15 | 291 | 4.8 | 4.8 | 0.00 | 0.64 | 0.64 | 58 | 1030.1 |
| 20260906053603 | 15 | 287 | 4.8 | 8.0 | 0.00 | 0.64 | 0.64 | 65 | 1030.3 |
| 20260906053104 | 15 | 275 | 4.8 | 8.0 | 0.00 | 0.64 | 0.64 | 60 | 1030.5 |
| 20260906052603 | 15 | 271 | 4.8 | 8.0 | 0.00 | 0.64 | 0.64 | 61 | 1030.4 |
| 20260906051604 | 14 | 267 | 4.8 | 8.0 | 0.03 | 0.64 | 0.64 | 65 | 1030.4 |
| 20260906051104 | 13 | 264 | 3.2 | 9.7 | 0.05 | 0.64 | 0.64 | 64 | 1030.6 |
| 20260906050603 | 13 | 266 | 6.4 | 9.7 | 0.15 | 0.64 | 0.64 | 71 | 1030.6 |
| 20260906050109 | 14 | 273 | 3.2 | 9.7 | 0.46 | 0.64 | 0.64 | 69 | 1031.0 |
| 20260906045604 | 14 | 291 | 4.8 | 9.7 | 0.64 | 0.64 | 0.64 | 68 | 1030.8 |
| 20260906045104 | 14 | 292 | 4.8 | 12.9 | 0.64 | 0.64 | 0.64 | 67 | 1030.5 |
| 20260906044603 | 13 | 304 | 4.8 | 12.9 | 0.64 | 0.64 | 0.64 | 70 | 1030.5 |
| 20260906044104 | 13 | 294 | 8.0 | 12.9 | 0.64 | 0.64 | 0.64 | 76 | 1031.1 |
| 20260906043604 | 13 | 288 | 6.4 | 12.9 | 0.64 | 0.64 | 0.64 | 76 | 1031.1 |
| 20260906043103 | 12 | 287 | 4.8 | 9.7 | 0.64 | 0.64 | 0.64 | 78 | 1031.1 |
| 20260906042103 | 13 | 272 | 4.8 | 16.1 | 0.64 | 0.64 | 0.64 | 79 | 1030.8 |
| 20260906041603 | 13 | 278 | 4.8 | 20.9 | 0.61 | 0.61 | 0.61 | 74 | 1030.8 |
| 20260906041103 | 13 | 344 | 9.7 | 38.6 | 0.58 | 0.58 | 0.58 | 73 | 1030.6 |
| 20260906040603 | 13 | 340 | 19.3 | 38.6 | 0.48 | 0.48 | 0.48 | 74 | 1031.0 |
| 20260906040105 | 16 | 339 | 22.5 | 33.8 | 0.18 | 0.18 | 0.18 | 62 | 1030.3 |
| 20260906035603 | 18 | 338 | 19.3 | 32.2 | 0.00 | 0.00 | 0.00 | 46 | 1030.1 |
| 20260906035103 | 18 | 348 | 11.3 | 29.0 | 0.00 | 0.00 | 0.00 | 46 | 1030.2 |
| 20260906034604 | 18 | 349 | 19.3 | 29.0 | 0.00 | 0.00 | 0.00 | 45 | 1030.1 |
| 20260906034104 | 18 | 346 | 11.3 | 27.4 | 0.00 | 0.00 | 0.00 | 44 | 1029.9 |
| 20260906033603 | 18 | 355 | 9.7 | 16.1 | 0.00 | 0.00 | 0.00 | 44 | 1029.8 |
| 20260906033104 | 18 | 350 | 8.0 | 12.9 | 0.00 | 0.00 | 0.00 | 43 | 1029.8 |
| 20260906032604 | 18 | 352 | 4.8 | 9.7 | 0.00 | 0.00 | 0.00 | 42 | 1029.8 |
| 20260906032104 | 18 | 317 | 3.2 | 4.8 | 0.00 | 0.00 | 0.00 | 41 | 1029.8 |
| 20260906031603 | 19 | 265 | 3.2 | 4.8 | 0.00 | 0.00 | 0.00 | 41 | 1029.8 |
| 20260906031104 | 19 | 265 | 1.6 | 3.2 | 0.00 | 0.00 | 0.00 | 41 | 1029.7 |
| 20260906030603 | 19 | 265 | 1.6 | 4.8 | 0.00 | 0.00 | 0.00 | 41 | 1029.6 |
| 20260906030104 | 18 | 265 | 1.6 | 4.8 | 0.00 | 0.00 | 0.00 | 41 | 1029.5 |
| 20260906025604 | 18 | 265 | 3.2 | 4.8 | 0.00 | 0.00 | 0.00 | 41 | 1029.5 |
| 20260906025103 | 18 | 263 | 3.2 | 4.8 | 0.00 | 0.00 | 0.00 | 41 | 1029.5 |
| 20260906024603 | 19 | 196 | 3.2 | 4.8 | 0.00 | 0.00 | 0.00 | 41 | 1029.5 |
| 20260906023104 | 19 | 136 | 1.6 | 4.8 | 0.00 | 0.00 | 0.00 | 40 | 1029.2 |
| 20260906022603 | 19 | 136 | 1.6 | 4.8 | 0.00 | 0.00 | 0.00 | 40 | 1029.3 |
| 20260906022104 | 19 | 136 | 3.2 | 4.8 | 0.00 | 0.00 | 0.00 | 41 | 1029.4 |
| 20260906021103 | 19 | 129 | 3.2 | 4.8 | 0.00 | 0.00 | 0.00 | 40 | 1029.2 |
| 20260906020603 | 19 | 120 | 1.6 | 4.8 | 0.00 | 0.00 | 0.00 | 40 | 1029.2 |
| 20260906020105 | 19 | 120 | 1.6 | 4.8 | 0.00 | 0.00 | 0.00 | 40 | 1029.1 |
| 20260906015104 | 19 | 160 | 1.6 | 4.8 | 0.00 | 0.00 | 0.00 | 39 | 1029.2 |
| 20260906014604 | 20 | 158 | 3.2 | 4.8 | 0.00 | 0.00 | 0.00 | 39 | 1029.1 |
| 20260906014104 | 20 | 133 | 1.6 | 3.2 | 0.00 | 0.00 | 0.00 | 39 | 1029.1 |
| 20260906013603 | 20 | 133 | 1.6 | 4.8 | 0.00 | 0.00 | 0.00 | 38 | 1028.9 |
| 20260906013104 | 20 | 133 | 0.0 | 4.8 | 0.00 | 0.00 | 0.00 | 38 | 1028.9 |
| 20260906012104 | 20 | 133 | 3.2 | 4.8 | 0.00 | 0.00 | 0.00 | 38 | 1029.0 |
| 20260906011604 | 20 | 133 | 1.6 | 4.8 | 0.00 | 0.00 | 0.00 | 38 | 1029.0 |
| 20260906011104 | 20 | 133 | 3.2 | 4.8 | 0.00 | 0.00 | 0.00 | 37 | 1028.9 |
| 20260906010604 | 21 | 134 | 1.6 | 9.7 | 0.00 | 0.00 | 0.00 | 37 | 1028.9 |
| 20260906010104 | 21 | 133 | 3.2 | 9.7 | 0.00 | 0.00 | 0.00 | 37 | 1029.0 |
| 20260906005103 | 21 | 134 | 4.8 | 19.3 | 0.00 | 0.00 | 0.00 | 36 | 1029.1 |
| 20260906004103 | 21 | 127 | 6.4 | 16.1 | 0.00 | 0.00 | 0.00 | 36 | 1029.0 |
| 20260906003604 | 21 | 128 | 8.0 | 20.9 | 0.00 | 0.00 | 0.00 | 36 | 1028.9 |
| 20260906003104 | 21 | 133 | 9.7 | 20.9 | 0.00 | 0.00 | 0.00 | 36 | 1028.9 |
| 20260906002604 | 21 | 134 | 8.0 | 16.1 | 0.00 | 0.00 | 0.00 | 36 | 1029.0 |
| 20260906002104 | 21 | 133 | 8.0 | 19.3 | 0.00 | 0.00 | 0.00 | 36 | 1029.0 |
| 20260906001604 | 21 | 137 | 8.0 | 19.3 | 0.00 | 0.00 | 0.00 | 35 | 1029.0 |
| 20260906001104 | 22 | 154 | 8.0 | 14.5 | 0.00 | 0.00 | 0.00 | 35 | 1028.9 |
| 20260906000604 | 22 | 141 | 8.0 | 14.5 | 0.00 | 0.00 | 0.00 | 35 | 1028.9 |
| 20260906000105 | 22 | 139 | 4.8 | 14.5 | 0.00 | 0.00 | 0.00 | 35 | 1028.9 |
| 20260905235604 | 22 | 153 | 9.7 | 14.5 | 0.00 | 0.00 | 0.00 | 34 | 1028.8 |
| 20260905235104 | 22 | 127 | 4.8 | 11.3 | 0.00 | 0.00 | 0.00 | 34 | 1028.8 |
| 20260905234604 | 22 | 140 | 4.8 | 12.9 | 0.00 | 0.00 | 0.00 | 34 | 1028.7 |
| 20260905234103 | 22 | 129 | 3.2 | 12.9 | 0.00 | 0.00 | 0.00 | 34 | 1028.8 |
| 20260905233104 | 22 | 138 | 11.3 | 19.3 | 0.00 | 0.00 | 0.00 | 35 | 1028.7 |
| 20260905232604 | 22 | 136 | 9.7 | 19.3 | 0.00 | 0.00 | 0.00 | 35 | 1028.7 |
| 20260905232105 | 22 | 156 | 9.7 | 16.1 | 0.00 | 0.00 | 0.00 | 34 | 1028.7 |
| 20260905231604 | 22 | 125 | 4.8 | 11.3 | 0.00 | 0.00 | 0.00 | 34 | 1028.6 |
| 20260905230604 | 22 | 125 | 8.0 | 19.3 | 0.00 | 0.00 | 0.00 | 34 | 1028.6 |
| 20260905230104 | 22 | 142 | 8.0 | 19.3 | 0.00 | 0.00 | 0.00 | 34 | 1028.6 |